OEFVS LFPB-LFRG

Flight info

Callsign OEFVS
Flight time 0h 27m
Altitude 16000
Route ELCOB N160 BERNO
Aircraft P180/L-SBDFGM3RWXY/LB1

Departure

Time 2026-05-05 18:08
Airport Paris-Le Bourget International Airport (LFPB)

Arrival

Time 2026-05-05 18:36
Airport Deauville Normandie airport (LFRG)
Time Latitude Longitude Altitude Speed Heading
2026-05-05 17:52 48.95852 2.44292 152 ft 0 kts 25°
2026-05-05 18:03 48.95853 2.44293 152 ft 1 kts 25°
2026-05-05 18:03 48.95866 2.44291 152 ft 3 kts 333°
2026-05-05 18:03 48.95890 2.44242 152 ft 9 kts 290°
2026-05-05 18:03 48.95849 2.44164 151 ft 13 kts 204°
2026-05-05 18:04 48.95763 2.44103 150 ft 15 kts 205°
2026-05-05 18:04 48.95697 2.43999 148 ft 16 kts 277°
2026-05-05 18:04 48.95740 2.43851 149 ft 14 kts 295°
2026-05-05 18:04 48.95777 2.43727 151 ft 12 kts 295°
2026-05-05 18:05 48.95812 2.43613 151 ft 13 kts 295°
2026-05-05 18:05 48.95844 2.43509 157 ft 10 kts 295°
2026-05-05 18:05 48.95879 2.43393 156 ft 14 kts 294°
2026-05-05 18:05 48.95954 2.43304 155 ft 14 kts 347°
2026-05-05 18:06 48.96051 2.43270 156 ft 15 kts 347°
2026-05-05 18:06 48.96085 2.43258 156 ft 16 kts 347°
2026-05-05 18:06 48.96287 2.43189 160 ft 13 kts 347°
2026-05-05 18:06 48.96353 2.43167 162 ft 11 kts 347°
2026-05-05 18:07 48.96436 2.43139 163 ft 13 kts 347°
2026-05-05 18:07 48.96518 2.43111 169 ft 11 kts 347°
2026-05-05 18:07 48.96602 2.43106 173 ft 14 kts 12°
2026-05-05 18:07 48.96691 2.43189 173 ft 17 kts 52°
2026-05-05 18:08 48.96768 2.43457 174 ft 65 kts 68°
2026-05-05 18:08 48.97007 2.44382 328 ft 107 kts 65°
2026-05-05 18:08 48.97303 2.45564 766 ft 130 kts 65°
2026-05-05 18:08 48.97630 2.46898 1313 ft 137 kts 66°
2026-05-05 18:09 48.97935 2.48280 1893 ft 141 kts 73°
2026-05-05 18:09 48.97870 2.49914 2451 ft 168 kts 95°
2026-05-05 18:09 48.97684 2.51720 3116 ft 181 kts 94°
2026-05-05 18:09 48.97507 2.53654 3933 ft 183 kts 95°
2026-05-05 18:10 48.97308 2.55554 4730 ft 187 kts 101°
2026-05-05 18:10 48.96582 2.57214 5487 ft 195 kts 137°
2026-05-05 18:10 48.95360 2.58134 6272 ft 200 kts 169°
2026-05-05 18:10 48.93976 2.57938 6964 ft 204 kts 201°
2026-05-05 18:11 48.92856 2.56637 7638 ft 207 kts 234°
2026-05-05 18:11 48.92358 2.54612 8248 ft 207 kts 269°
2026-05-05 18:11 48.92503 2.52444 8874 ft 208 kts 281°
2026-05-05 18:11 48.92699 2.50229 9533 ft 209 kts 281°
2026-05-05 18:12 48.92708 2.50122 9562 ft 209 kts 280°
2026-05-05 18:12 48.92761 2.49492 9711 ft 211 kts 281°
2026-05-05 18:12 48.92955 2.47271 10254 ft 212 kts 280°
2026-05-05 18:12 48.93167 2.45026 10732 ft 216 kts 279°
2026-05-05 18:13 48.93360 2.42753 11260 ft 217 kts 278°
2026-05-05 18:13 48.93486 2.41244 11589 ft 219 kts 278°
2026-05-05 18:13 48.93685 2.38943 12213 ft 219 kts 277°
2026-05-05 18:13 48.93885 2.36624 12832 ft 220 kts 277°
2026-05-05 18:14 48.94087 2.34289 13371 ft 223 kts 276°
2026-05-05 18:14 48.94287 2.31948 13907 ft 223 kts 276°
2026-05-05 18:14 48.94488 2.29597 14357 ft 225 kts 275°
2026-05-05 18:14 48.94688 2.27227 14804 ft 227 kts 276°
2026-05-05 18:15 48.94893 2.24843 15272 ft 227 kts 276°
2026-05-05 18:15 48.95100 2.22454 15731 ft 228 kts 276°
2026-05-05 18:15 48.95306 2.19977 15826 ft 246 kts 276°
2026-05-05 18:15 48.95536 2.17311 15827 ft 263 kts 277°
2026-05-05 18:16 48.95775 2.14479 15836 ft 276 kts 277°
2026-05-05 18:16 48.96017 2.11519 15838 ft 287 kts 277°
2026-05-05 18:16 48.96272 2.08493 15836 ft 295 kts 277°
2026-05-05 18:16 48.96536 2.05371 15838 ft 301 kts 277°
2026-05-05 18:17 48.96801 2.02181 15838 ft 306 kts 277°
2026-05-05 18:17 48.97067 1.98947 15842 ft 310 kts 277°
2026-05-05 18:17 48.97339 1.95673 15836 ft 312 kts 277°
2026-05-05 18:17 48.97613 1.92382 15841 ft 314 kts 277°
2026-05-05 18:18 48.97880 1.89093 15837 ft 315 kts 277°
2026-05-05 18:18 48.98149 1.85766 15840 ft 316 kts 277°
2026-05-05 18:18 48.98423 1.82444 15842 ft 316 kts 277°
2026-05-05 18:18 48.98696 1.79117 15840 ft 317 kts 277°
2026-05-05 18:19 48.98963 1.75778 15840 ft 318 kts 277°
2026-05-05 18:19 48.99231 1.72427 15840 ft 320 kts 277°
2026-05-05 18:19 48.99506 1.69053 15843 ft 322 kts 277°
2026-05-05 18:19 48.99778 1.65661 15846 ft 323 kts 277°
2026-05-05 18:20 49.00045 1.62243 15850 ft 325 kts 277°
2026-05-05 18:20 49.00319 1.58813 15853 ft 327 kts 277°
2026-05-05 18:20 49.00594 1.55349 15855 ft 329 kts 277°
2026-05-05 18:20 49.00867 1.51875 15856 ft 331 kts 277°
2026-05-05 18:21 49.01292 1.48435 15848 ft 331 kts 288°
2026-05-05 18:21 49.02228 1.45244 15843 ft 330 kts 298°
2026-05-05 18:21 49.03252 1.42114 15844 ft 330 kts 295°
2026-05-05 18:21 49.04049 1.38834 15849 ft 329 kts 288°
2026-05-05 18:22 49.04725 1.35514 15846 ft 328 kts 289°
2026-05-05 18:22 49.05530 1.32272 15847 ft 326 kts 293°
2026-05-05 18:22 49.06390 1.29078 15847 ft 326 kts 292°
2026-05-05 18:22 49.07163 1.25823 15851 ft 326 kts 289°
2026-05-05 18:23 49.07899 1.22550 15846 ft 326 kts 290°
2026-05-05 18:23 49.08697 1.19312 15849 ft 327 kts 292°
2026-05-05 18:23 49.09517 1.16076 15850 ft 328 kts 292°
2026-05-05 18:23 49.10295 1.12795 15850 ft 328 kts 290°
2026-05-05 18:24 49.11061 1.09511 15852 ft 329 kts 291°
2026-05-05 18:24 49.11860 1.06241 15851 ft 329 kts 291°
2026-05-05 18:24 49.12662 1.02977 15857 ft 329 kts 291°
2026-05-05 18:24 49.13442 0.99675 15688 ft 333 kts 290°
2026-05-05 18:25 49.14232 0.96324 15316 ft 336 kts 291°
2026-05-05 18:25 49.14769 0.94107 15047 ft 337 kts 291°
2026-05-05 18:25 49.15857 0.89606 14452 ft 337 kts 291°
2026-05-05 18:25 49.16640 0.86287 13927 ft 337 kts 290°
2026-05-05 18:26 49.17429 0.82958 13438 ft 327 kts 291°
2026-05-05 18:26 49.18188 0.79756 13141 ft 313 kts 291°
2026-05-05 18:26 49.18925 0.76651 12774 ft 308 kts 292°
2026-05-05 18:26 49.19656 0.73599 12383 ft 304 kts 292°
2026-05-05 18:27 49.20375 0.70565 11982 ft 302 kts 292°
2026-05-05 18:27 49.21080 0.67546 11543 ft 300 kts 291°
2026-05-05 18:27 49.21786 0.64553 11168 ft 297 kts 292°
2026-05-05 18:27 49.22489 0.61591 10795 ft 295 kts 292°
2026-05-05 18:28 49.23860 0.55744 10094 ft 289 kts 292°
2026-05-05 18:28 49.24538 0.52853 9770 ft 288 kts 293°
2026-05-05 18:28 49.25221 0.49971 9389 ft 288 kts 293°
2026-05-05 18:29 49.25896 0.47088 9013 ft 288 kts 292°
2026-05-05 18:29 49.26642 0.44303 8614 ft 283 kts 301°
2026-05-05 18:29 49.27617 0.41673 8258 ft 277 kts 302°
2026-05-05 18:29 49.28478 0.39053 7889 ft 274 kts 298°
2026-05-05 18:30 49.29297 0.36433 7527 ft 271 kts 300°
2026-05-05 18:30 49.30172 0.33903 7184 ft 267 kts 302°
2026-05-05 18:30 49.31057 0.31435 6830 ft 261 kts 304°
2026-05-05 18:30 49.32290 0.29490 6257 ft 256 kts 333°
2026-05-05 18:31 49.33995 0.28997 5539 ft 252 kts
2026-05-05 18:31 49.35553 0.30112 4849 ft 250 kts 41°
2026-05-05 18:31 49.36398 0.32364 4141 ft 246 kts 74°
2026-05-05 18:31 49.36233 0.34946 3440 ft 248 kts 109°
2026-05-05 18:32 49.35115 0.36890 2900 ft 253 kts 147°
2026-05-05 18:32 49.33402 0.37357 2869 ft 258 kts 186°
2026-05-05 18:32 49.31850 0.36181 2873 ft 244 kts 225°
2026-05-05 18:32 49.31165 0.34063 2876 ft 210 kts 266°
2026-05-05 18:33 49.31169 0.31884 2721 ft 202 kts 283°
2026-05-05 18:33 49.31638 0.30003 2461 ft 170 kts 303°
2026-05-05 18:33 49.32122 0.28544 2257 ft 145 kts 302°
2026-05-05 18:33 49.32578 0.27198 2058 ft 141 kts 304°
2026-05-05 18:34 49.33027 0.25865 1869 ft 140 kts 304°
2026-05-05 18:34 49.33459 0.24570 1681 ft 131 kts 305°
2026-05-05 18:34 49.33865 0.23364 1502 ft 127 kts 305°
2026-05-05 18:34 49.34271 0.22165 1327 ft 126 kts 306°
2026-05-05 18:35 49.34670 0.20968 1173 ft 124 kts 304°
2026-05-05 18:35 49.35071 0.19797 1002 ft 123 kts 302°
2026-05-05 18:35 49.35457 0.18618 841 ft 125 kts 301°
2026-05-05 18:35 49.35836 0.17472 650 ft 117 kts 304°
2026-05-05 18:36 49.36202 0.16398 476 ft 107 kts 302°
2026-05-05 18:36 49.36480 0.15569 469 ft 70 kts 299°
2026-05-05 18:36 49.36610 0.15219 472 ft 18 kts 314°
2026-05-05 18:36 49.36579 0.15243 469 ft 28 kts 113°
2026-05-05 18:37 49.36479 0.15556 470 ft 32 kts 117°
2026-05-05 18:37 49.36388 0.15835 471 ft 22 kts 116°
2026-05-05 18:37 49.36310 0.15961 470 ft 14 kts 180°
2026-05-05 18:37 49.36231 0.15906 469 ft 12 kts 211°
2026-05-05 18:38 49.36175 0.15844 469 ft 9 kts 256°
2026-05-05 18:38 49.36182 0.15818 469 ft 0 kts 298°